Weather History for Key West NAF, FL

Change the Weather History Date:

Friday, December 13, 2013

  Actual Average Record
Temperature  
Mean Temperature 76 °F -  
Max Temperature 82 °F 77 °F 84 °F (1961)
Min Temperature 71 °F 67 °F 46 °F (1962)
Cooling Degree Days 12    
Growing Degree Days 26 (Base 50)    
Moisture  
Dew Point 68 °F    
Average Humidity 77    
Maximum Humidity 89    
Minimum Humidity 65    
Precipitation  
Precipitation 0.01 in - - ()
Sea Level Pressure  
Sea Level Pressure 30.09 in    
Wind  
Wind Speed 15 mph (ENE)    
Max Wind Speed 21 mph    
Max Gust Speed 29 mph    
Visibility 10 miles    
Events Rain    
Averages and records for this station are not official NWS values.
T = Trace of Precipitation, MM = Missing Value Source: NWS Daily Summary

Daily Weather History Graph

Daily Weather History Graph

Search for Another Location

Airport:

Trip Planner

Search our weather history database for the weather conditions in past years. The results will help you decide how hot, cold, wet, or windy it might be!

Date:

Astronomy

Dec. 13, 2013 Rise Set
Actual Time 7:02 AM EST 5:40 PM EST
Civil Twilight 6:37 AM EST 6:04 PM EST
Nautical Twilight 6:08 AM EST 6:33 PM EST
Astronomical Twilight 5:40 AM EST 7:01 PM EST
Moon 3:08 PM EST (12/13) 3:39 AM EST (12/13)
Length of Visible Light 11h 27m
Length of Day
10h 37m
Waxing Gibbous, 88% of the Moon is Illuminated
Dec 13
Waxing Gibbous
Dec 17
Full
Dec 25
Last Quarter
Jan 1
New
Jan 7
First Quarter

Hourly Weather History & Observations

Time (EST) Temp. Heat Index Dew Point Humidity Pressure Visibility Wind Dir Wind Speed Gust Speed Precip Events Conditions
12:53 AM 73.0 °F - 64.0 °F 73% 30.14 in 10.0 mi NE 18.4 mph 25.3 mph N/A   Mostly Cloudy
1:53 AM 72.0 °F - 64.0 °F 76% 30.12 in 10.0 mi NE 18.4 mph 27.6 mph N/A   Partly Cloudy
2:53 AM 72.0 °F - 63.0 °F 73% 30.10 in 10.0 mi NE 19.6 mph 28.8 mph N/A   Clear
3:53 AM 72.0 °F - 64.0 °F 76% 30.09 in 10.0 mi NE 16.1 mph 27.6 mph N/A   Mostly Cloudy
4:53 AM 72.0 °F - 64.0 °F 76% 30.10 in 10.0 mi NE 12.7 mph 25.3 mph N/A   Overcast
5:53 AM 72.0 °F - 64.0 °F 76% 30.11 in 10.0 mi NE 12.7 mph 23.0 mph N/A   Mostly Cloudy
5:56 AM 71.6 °F - 64.4 °F 78% 30.11 in 10.0 mi NE 11.5 mph 23.0 mph N/A   Mostly Cloudy
6:53 AM 72.0 °F - 64.0 °F 76% 30.12 in 10.0 mi NE 13.8 mph 20.7 mph N/A   Scattered Clouds
7:53 AM 73.0 °F - 64.9 °F 76% 30.13 in 10.0 mi NE 11.5 mph 20.7 mph N/A   Scattered Clouds
8:53 AM 75.0 °F - 66.0 °F 73% 30.14 in 10.0 mi ENE 17.3 mph 23.0 mph N/A   Partly Cloudy
9:53 AM 77.0 °F - 66.9 °F 71% 30.15 in 10.0 mi ENE 15.0 mph 21.9 mph N/A   Partly Cloudy
10:53 AM 79.0 °F - 68.0 °F 69% 30.14 in 10.0 mi ENE 13.8 mph - N/A   Partly Cloudy
11:53 AM 81.0 °F 83.8 °F 68.0 °F 65% 30.13 in 10.0 mi ENE 16.1 mph - N/A   Partly Cloudy
12:53 PM 81.0 °F 84.1 °F 69.1 °F 67% 30.10 in 10.0 mi East 17.3 mph 25.3 mph N/A   Partly Cloudy
1:53 PM 82.0 °F 85.5 °F 69.1 °F 65% 30.07 in 10.0 mi East 19.6 mph 27.6 mph N/A   Partly Cloudy
2:53 PM 81.0 °F 84.1 °F 69.1 °F 67% 30.05 in 10.0 mi East 18.4 mph 25.3 mph N/A   Mostly Cloudy
3:32 PM 80.6 °F 83.9 °F 69.8 °F 70% 30.05 in 10.0 mi East 20.7 mph 26.5 mph N/A   Mostly Cloudy
3:53 PM 79.0 °F - 70.0 °F 74% 30.05 in 10.0 mi East 17.3 mph - N/A   Mostly Cloudy
4:53 PM 78.1 °F - 70.0 °F 76% 30.05 in 10.0 mi East 13.8 mph - N/A   Mostly Cloudy
5:53 PM 77.0 °F - 70.0 °F 79% 30.06 in 10.0 mi ENE 13.8 mph - N/A   Mostly Cloudy
6:50 PM 77.0 °F - 71.6 °F 83% 30.07 in 10.0 mi ENE 12.7 mph 19.6 mph N/A   Scattered Clouds
6:53 PM 77.0 °F - 71.1 °F 82% 30.06 in 10.0 mi ENE 12.7 mph 19.6 mph N/A   Scattered Clouds
7:16 PM 75.2 °F - 71.6 °F 89% 30.07 in 10.0 mi ENE 11.5 mph - N/A   Mostly Cloudy
7:21 PM 77.0 °F - 71.6 °F 83% 30.07 in 10.0 mi ENE 12.7 mph - 0.00 in Rain Light Rain
7:38 PM 75.2 °F - 71.6 °F 89% 30.08 in 10.0 mi ENE 9.2 mph - 0.00 in   Mostly Cloudy
7:48 PM 75.2 °F - 71.6 °F 89% 30.08 in 10.0 mi ENE 9.2 mph - 0.00 in   Mostly Cloudy
7:53 PM 75.9 °F - 72.0 °F 87% 30.08 in 10.0 mi ENE 10.4 mph - 0.00 in   Mostly Cloudy
8:16 PM 75.2 °F - 71.6 °F 89% 30.07 in 10.0 mi East 12.7 mph 21.9 mph N/A   Mostly Cloudy
8:53 PM 75.9 °F - 72.0 °F 87% 30.08 in 10.0 mi East 10.4 mph - N/A   Mostly Cloudy
9:53 PM 78.1 °F - 71.1 °F 79% 30.07 in 10.0 mi ESE 12.7 mph - N/A   Mostly Cloudy
10:53 PM 77.0 °F - 71.1 °F 82% 30.08 in 10.0 mi ESE 11.5 mph - 0.01 in   Mostly Cloudy
11:53 PM 77.0 °F - 71.1 °F 82% 30.07 in 10.0 mi ESE 12.7 mph - N/A   Partly Cloudy